星链-4734 (STARLINK-4734 )

导读 | 星芒AI

STARLINK-4734 是 SpaceX Starlink 项目中的一颗低轨通信卫星,属于第 21 批 Starlink 卫星发射任务的一部分。该卫星于 2022 年 11 月 18 日由猎鹰 9 号火箭从美国卡纳维拉尔角发射升空。它运行在约 540 公里的近地轨道上,旨在为全球提供高速互联网服务。STARLINK-4734 采用先进的星载通信技术,支持 Ku 和 Ka 频段,具备自动避撞功能,以确保轨道安全。作为 Starlink 卫星群的重要成员,它有助于提升全球偏远地区的网络覆盖与连接质量。

基本信息
目录编号:
53790
目录名称:
STARLINK-4734
国际标识:
2022-111T
轨道中心:
EARTH
卫星名称:
星链-4734
卫星全名:
星链-4734 (STARLINK-4734 )
卫星状态:
在轨 (已飞行1151 天)
发射日期:
2022-09-11 UTC
国别 :
美国 (US)
星等 :
--
轨道信息
数据来源 国际轨道数据
星历时间: 2025-11-04T12:52:26+0800
19小时前
查看轨道信息
半长轴: 6917.88km
偏心率: 0.0001419
轨道倾角: 53.215°
近地点辐角 88.264°
升交点赤经 117.331°
平近点角 271.851°
近地点: 538.763km
远地点: 540.727km
周期: 95.438分钟
每日圈数: 15.088402
详细信息
固有亮度:
5
最大亮度:
2.5
卫星平台:
Starlink v1.5
覆盖范围:
全球
运营商:
太空探索技术公司
运营商所在国:
美国
制造商(研发单位):
太空探索技术公司
制造商所在国:
美国
使用方式:
暂无
卫星简介
星链(Starlink)计划是由太空探索技术公司(SpaceX)提出的一个巨型低轨卫星互联网星座项目,计划在2019年至2024年间在太空搭建由约1.2万颗卫星组成的“星链”网络,其中1584颗将部署在地球上空550千米处的近地轨道,并从2020年开始工作。该卫星仍在工作。
2D轨道图
3D轨道图
轨道高度分析图
轨道倾角分析图
轨道综合分析图
查看轨道综合分析图